Location: Newark
(32.5667°N, 57.6833°E)
Time: 12:53:37
(UTC+00:00)

Hubble Space Telescope - Visible Passes

Search period start: 18 August 2019 00:00
Search period end: 28 August 2019 00:00
Orbit: 536 x 540 km, 28.5° (Epoch: 17 August)

Date Brightness Start Highest point End Pass type
(mag) Time Alt. Az. Time Alt. Az. Time Alt. Az.
18 Aug 1.2 15:38:38 10° WSW 15:42:37 47° S 15:45:29 17° ESE visible
18 Aug 3.2 17:19:49 10° WSW 17:20:49 16° WSW 17:20:49 16° WSW visible
19 Aug 1.3 15:28:05 10° WSW 15:32:02 46° S 15:35:25 14° ESE visible
19 Aug 3.0 17:09:22 10° WSW 17:10:45 18° WSW 17:10:45 18° WSW visible
20 Aug 1.4 15:17:32 10° WSW 15:21:28 44° S 15:25:20 10° ESE visible
20 Aug 2.9 16:58:58 10° WSW 17:00:40 19° SW 17:00:40 19° SW visible
21 Aug 1.5 15:07:00 10° WSW 15:10:54 41° S 15:14:47 10° ESE visible
21 Aug 2.8 16:48:38 10° WSW 16:50:36 18° SW 16:50:36 18° SW visible
22 Aug 2.9 16:38:24 10° WSW 16:40:33 16° SSW 16:40:33 16° SSW visible
23 Aug 3.0 16:28:22 10° SW 16:30:26 13° SSW 16:30:33 13° SSW visible
24 Aug 3.3 16:18:56 10° SW 16:19:47 11° SSW 16:20:35 10° SSW visible
